Hourly Data Report for October 07, 2020

SHEARWATER RCS
NOVA SCOTIA
Current Station Operator: ECCC - MSC

44°37'47.000" N
63°30'48.000" W
24.00 m
8205092
71264
AAW

Download Data

Hourly Data (October 2020)
Hourly Data Report for October 7, 2020
TIME Temp Definition
°C
Dew Point Definition
°C
Rel Hum Definition
%
Wind Dir Definition
10's deg

Wind Spd Definition
km/h
Visibility Definition
km
Stn Press Definition
kPa
Hmdx Definition


Wind Chill Definition


Weather Definition


00:00 14.0 13.4 96 0 1   101.21     LegendNANA
01:00 13.6 13.0 96   0   101.12     LegendNANA
02:00 13.5 13.0 97 29 5   101.03     LegendNANA
03:00 13.6 13.0 97 6 4   100.90     LegendNANA
04:00 13.6 13.1 97 0 1   100.86     LegendNANA
05:00 13.0 12.6 98 30 4   100.78     LegendNANA
06:00 12.8 12.4 98 24 6   100.74     LegendNANA
07:00 13.1 12.3 95 0 1   100.69     LegendNANA
08:00 13.7 12.3 92 22 4   100.61     LegendNANA
09:00 13.8 12.4 91 21 7   100.58     LegendNANA
10:00 15.4 12.8 84 17 6   100.49     LegendNANA
11:00 15.2 13.0 87 20 16   100.45     LegendNANA
12:00 15.6 13.6 88 18 14   100.32     LegendNANA
13:00 15.9 13.6 86 19 17   100.16     LegendNANA
14:00 15.9 13.7 87 19 19   100.04     LegendNANA
15:00 16.0 13.2 83 20 23   99.94     LegendNANA
16:00 16.8 12.9 78 21 22   99.81     LegendNANA
17:00 15.6 13.1 85 21 20   99.74     LegendNANA
18:00 15.4 13.5 88 20 24   99.68     LegendNANA
19:00 15.3 13.7 90 19 18   99.55     LegendNANA
20:00 15.3 13.6 90 18 22   99.41     LegendNANA
21:00 15.4 13.7 90 19 24   99.24     LegendNANA
22:00 15.8 14.2 90 19 29   99.01     LegendNANA
23:00 15.5 14.2 92 20 31   98.81     LegendNANA

Notes on Data Quality.

Legend

  • E = Estimated
  • M = Missing
  • NA = Not Available*
  • [empty] = Indicates an unobserved value
Date modified: